Tracking 29090 objects as of 15-Jul-2024
HD Live streaming from Space Station
objects crossing your sky now

SL-8 DEB

Track SL-8 DEB now!
10-day predictions


NORAD ID: 21408
Int'l Code: 1991-009BX
Perigee: 1,457.6 km
Apogee: 1,777.8 km
Inclination: 74.0 °
Period: 118.4 minutes
Semi major axis: 7988 km
RCS: 0.0598 m2 (small)
Launch date: February 12, 1991
Source: Commonwealth of Independent States (former USSR) (CIS)
Launch site: PLESETSK MISSILE AND SPACE COMPLEX (PKMTR)

Note: This is SATELLITE DEBRIS
Your satellite tracking list
Your tracking list is empty




NASA's NSSDC Master Catalog

Two Line Element Set (TLE):
1 21408U 91009BX  24196.54215662 -.00000015  00000-0 -41227-5 0  9996
2 21408  74.0259 104.9498 0200417   5.6616 168.2310 12.15865486480028
Source of the keplerian elements: AFSPC